Location: Downe
(51.3167°N, 0.0500°E)
Time: 21:53:54
(UTC+00:00)

CZ-2C R/B - Pass Details

Date: 17 November 2019
Orbit: 667 x 785 km, 98.1° (Epoch: 08 December)

Event Time Altitude Azimuth Distance (km) Brightness Sun altitude
Rises 04:42:48 0° 13° (NNE) 3,195 5.9 -24.2°
Reaches altitude 10° 04:45:08 10° 13° (NNE) 2,249 5.0 -23.9°
Maximum altitude 04:50:04 82° 287° (WNW) 729 2.2 -23.1°
Enters shadow 04:53:03 23° 201° (SSW) 1,470 3.8 -22.6°
